Location: Dalton
(34.7700°N, 84.9700°W)
Time: 07:29:11
(UTC-04:00)

N. Korean satellite - Pass Details

Date: 16 October 2017
Orbit: 459 x 517 km, 97.2° (Epoch: 16 October)

Event Time Altitude Azimuth Distance (km) Brightness Sun altitude
Rises 20:08:16 0° 182° (S) 2,545 10.3 -14.0°
Reaches altitude 10° 20:10:25 10° 190° (S) 1,658 9.4 -14.5°
Maximum altitude 20:13:48 41° 261° (W) 709 8.0 -15.2°
Drops below altitude 10° 20:17:09 10° 333° (NNW) 1,641 9.6 -15.9°
Sets 20:19:16 0° 341° (NNW) 2,514 10.5 -16.3°
